Regional Weather Roundup
Issued by NWS

Home | Current Version | Previous Version | Graphics & Text | Print | Product List | Glossary Off
Versions: 1 2 3 4 5 6 7 8 9 10 11 12 13 14 15 16 17 18 19 20 21 22 23 24 25 26 27 28 29 30 31 32 33 34 35 36 37 38 39 40 41 42 43 44 45 46 47 48 49 50

000
ASUS43 KBIS 221920
RWRND

NORTH DAKOTA REGIONAL WEATHER ROUNDUP
NATIONAL WEATHER SERVICE BISMARCK ND
100 PM CST MON DEC 22 2014

NOTE: "FAIR" INDICATES FEW OR NO CLOUDS BELOW 12,000 FEET WITH NO
SIGNIFICANT WEATHER AND/OR OBSTRUCTIONS TO VISIBILITY.


NDZ001>003-009>011-017-222000-
NORTHWEST NORTH DAKOTA

CITY           SKY/WX    TMP DP  RH WIND       PRES   REMARKS
WILLISTON      CLOUDY    27  22  81 N17       29.62S WCI  14
MINOT          CLOUDY    29  26  89 N9        29.56R
$$

NDZ018>021-031>035-040>046-222000-
SOUTHWEST NORTH DAKOTA

CITY           SKY/WX    TMP DP  RH WIND       PRES   REMARKS
BISMARCK       CLOUDY    30  28  92 N10       29.51R
DICKINSON      SNOW      26  23  88 NW22      29.52R VSB 1/4 WCI  12
GARRISON         N/A     29  27  92 NE9       29.53R
HETTINGER ARPT LGT SNOW  27  22  81 NW24G37   29.53R WCI  12
$$

NDZ004>008-012>016-024-026-027-054-222000-
NORTHEAST NORTH DAKOTA

CITY           SKY/WX    TMP DP  RH WIND       PRES   REMARKS
GRAND FORKS    LGT RAIN  37  36  96 E8        29.53S FOG
DEVILS LAKE    CLOUDY    34  32  93 NE9       29.52R VSB 3/4
$$

NDZ022-023-025-028>030-036>039-047>053-222000-
SOUTHEAST NORTH DAKOTA

CITY           SKY/WX    TMP DP  RH WIND       PRES   REMARKS
FARGO          LGT RAIN  41  38  89 SE9       29.49F
JAMESTOWN      SNOW      34  33  96 NE9       29.45F VSB 1/4
$$



USA.gov is the U.S. government's official web portal to all federal, state and local government web resources and services.